Miscellaneous Local Product
Issued by NWS North Platte, NE

Home | Current Version | Previous Version | Text Only | Print | Product List | Glossary On
Versions: 1 2 3 4 5 6 7 8 9 10 11 12 13 14 15 16 17 18 19 20 21 22 23 24 25 26 27 28 29 30 31 32 33 34 35 36 37 38 39 40 41 42 43 44 45 46 47 48 49 50
000
AXUS43 KLBF 180810
MISLBF


WESTERN AND NORTH CENTRAL NEBRASKA HOURLY WEATHER ROUNDUP
NATIONAL WEATHER SERVICE NORTH PLATTE NE
300 AM CDT SAT APR 18 2015

***STATIONS NOT REPORTING VARIABLES SUCH AS SKY/WEATHER OR
PRESSURE ARE PROVIDED BY THE NEBRASKA DEPARTMENT OF
ROADS...RAWS...AND APRS NETWORKS...AND ARE NOT UNDER
NATIONAL WEATHER SERVICE QUALITY CONTROL***

...OBSERVATIONS IN AND NEAR THE EASTERN PANHANDLE OF NEBRASKA...

CITY           SKY/WX    TMP DP  RH WIND       PRES   REMARKS
PINE RIDGE     LGT RAIN  48  46  93 E8        30.03F
CHADRON        LGT RAIN  47  46  97 NE6       30.03F FOG
ALLIANCE       RAIN      46  45  96 E9        30.00F FOG
SIDNEY         LGT RAIN  42  40  92 NW12      30.00F
WHITECLAY        N/A     46  44  93 CALM        N/A
CRESCENT LAKE    N/A     45  45  99 NE6         N/A
BIG SPRINGS      N/A     49  47  95 CALM        N/A
$$

...OBSERVATIONS IN NORTH CENTRAL NEBRASKA...

CITY           SKY/WX    TMP DP  RH WIND       PRES   REMARKS
VALENTINE      CLOUDY    51  48  89 NE5       30.01F
THEDFORD       LGT RAIN  52  51  95 E7        29.98S
AINSWORTH      CLOUDY    52  51  97 N6        29.99F
O`NEILL        CLOUDY    55  50  82 N5        30.00F
ORD            CLOUDY    56  50  80 E3        29.95F
BROKEN BOW     CLOUDY    56  51  84 NE12      29.94F
SPRINGVIEW       N/A     51  49  93 CALM        N/A
ROSE             N/A     54  53  97 N7          N/A
NEWPORT          N/A     53  52  97 CALM        N/A
SARGENT          N/A     55  52  90 MISG        N/A
COMSTOCK         N/A     57  57  97 E7          N/A
EWING            N/A     55  49  82 CALM        N/A
$$

...OBSERVATIONS IN SOUTHWEST NEBRASKA AND FAR NORTHEAST COLORADO...

CITY           SKY/WX    TMP DP  RH WIND       PRES   REMARKS
WRAY           FAIR      46  43  90 NW13      29.96F
HOLYOKE        LGT RAIN  46  43  87 NW9G17    29.98F
IMPERIAL       LGT RAIN  51  43  74 NE15      29.94F
OGALLALA       DRIZZLE   49  48  98 N6        29.96F
NORTH PLATTE   LGT RAIN  51  49  92 E5        29.96F
MCCOOK         RAIN      52  49  89 W9        29.97S FOG
LEXINGTON      RAIN      55  53  92 S10       29.97S
PAXTON           N/A     50  48  93 CALM        N/A
SUTHERLAND       N/A     45  43  93 CALM        N/A
BRADY            N/A     52  50  92 CALM        N/A
GOTHENBURG       N/A     53  49  87 SE6         N/A
CALLAWAY         N/A     53  52  97 E6          N/A
$$

...NORTH PLATTE AREA...

CITY           SKY/WX    TMP DP  RH WIND       PRES   REMARKS
AIRPORT        LGT RAIN  51  49  92 E5        29.96F
DOWNTOWN         N/A     50  49  95 CALM        N/A
$$

...SOME WEATHER OBSERVATIONS FROM AROUND THE REGION...

CITY           SKY/WX    TMP DP  RH WIND       PRES   REMARKS
DENVER         MOCLDY    35  34  96 SE8       30.01S WCI  29
LARAMIE        CLOUDY    27  25  92 E6        30.01S FOG     WCI  20
CHEYENNE       CLOUDY    34  33  96 NW6       30.01F WCI  29
SCOTTSBLUFF    RAIN      42  42 100 W10       30.01F FOG
RAPID CITY     CLOUDY    48  45  89 CALM      30.06F
PIERRE         CLOUDY    53  47  79 N9        30.03F
WINNER         CLOUDY    53  49  86 W8        30.03S
SIOUX FALLS    PTCLDY    49  28  44 NE5       30.02S
OMAHA          CLOUDY    65  54  67 NE3       29.96F
GRAND ISLAND   CLOUDY    55  52  89 E6        29.95F
KANSAS CITY    CLOUDY    63  57  81 E7        29.95F
WICHITA        CLOUDY    64  59  83 SE6       29.93S
HAYS           CLOUDY    55  45  67 NW12      29.93F
LIBERAL        MOCLDY    54  48  82 S14       29.95S
GOODLAND       MOCLDY    43  42  97 NW3       29.93F
$$



USA.gov is the U.S. government's official web portal to all federal, state and local government web resources and services.